Rockford, IL

10:06 AM CST on February 27, 2017 (GMT -0600)
Greater Rockford

Weather History for KRFD - March, 2013

Change the Weather History Date:

Sunday, March 10, 2013

  Actual Average Record
Temperature  
Mean Temperature 41 °F 35 °F  
Max Temperature 44 °F 44 °F 70 °F (1955)
Min Temperature 37 °F 26 °F -2 °F (2003)
Degree Days  
Heating Degree Days 24 30  
Month to date heating degree days 385 322  
Since 1 July heating degree days 5122 5324  
Cooling Degree Days 0 0  
Month to date cooling degree days 0 0  
Year to date cooling degree days 0 0  
Moisture  
Dew Point 40 °F    
Average Humidity 90    
Maximum Humidity 100    
Minimum Humidity 79    
Precipitation  
Precipitation 0.79 in 0.07 in 1.50 in (1943)
Month to date precipitation 1.85 0.65  
Year to date precipitation 7.92 3.43  
Snow  
Snow 0.00 in 0.20 in 7.00 in (1943)
Month to date snowfall 10.1 2.1  
Since 1 July snowfall 36.7 33.1  
Snow Depth 3.00 in    
Sea Level Pressure  
Sea Level Pressure 29.70 in    
Wind  
Wind Speed 8 mph (SE)    
Max Wind Speed 25 mph    
Max Gust Speed 23 mph    
Visibility 2 miles    
Events Fog , Rain    
T = Trace of Precipitation, MM = Missing Value Source: NWS Daily Summary

Daily Weather History Graph

Daily Weather History Graph

Search for Another Location

Airport or City:

Trip Planner

Search our weather history database for the weather conditions in past years. The results will help you decide how hot, cold, wet, or windy it might be!

Date:

Astronomy

Mar. 10, 2013 Rise Set
Actual Time 7:16 AM CDT 6:57 PM CDT
Civil Twilight 6:48 AM CDT 7:25 PM CDT
Nautical Twilight 6:16 AM CDT 7:57 PM CDT
Astronomical Twilight 5:43 AM CDT 8:30 PM CDT
Moon 6:17 AM CDT (3/10) 6:05 PM CDT (3/10)
Length of Visible Light 12h 36m
Length of Day
11h 41m
Waning Crescent, 2% of the Moon is Illuminated
Mar 10
Waning Crescent
Mar 11
New
Mar 19
First Quarter
Mar 27
Full
Apr 2
Last Quarter

Hourly Weather History & Observations

Time (CDT) Temp. Windchill Dew Point Humidity Pressure Visibility Wind Dir Wind Speed Gust Speed Precip Events Conditions
12:54 AM 39.0 °F 33.4 °F 34.0 °F 82% 29.83 in 10.0 mi South 8.1 mph - 0.01 in Rain Light Rain
1:54 AM 39.0 °F 31.0 °F 36.0 °F 89% 29.81 in 8.0 mi South 13.8 mph - 0.02 in Rain Light Rain
3:54 AM 39.0 °F 33.4 °F 37.9 °F 96% 29.78 in 8.0 mi South 8.1 mph - 0.07 in Rain Light Rain
4:54 AM 39.0 °F 32.3 °F 37.9 °F 96% 29.78 in 5.0 mi SSE 10.4 mph - 0.02 in Rain Light Rain
5:54 AM 37.9 °F 32.1 °F 37.9 °F 100% 29.79 in 4.0 mi South 8.1 mph - 0.03 in Rain Light Rain
6:54 AM 39.2 °F 31.6 °F 39.2 °F 100% 29.73 in 6.0 mi SE 12.7 mph - N/A Rain Light Rain
7:15 AM 39.2 °F 30.2 °F 37.4 °F 93% 29.73 in 5.0 mi SSE 17.3 mph - 0.00 in   Overcast
7:24 AM 39.2 °F 32.5 °F 39.2 °F 100% 29.75 in 5.0 mi SSE 10.4 mph - 0.00 in   Overcast
7:32 AM 39.2 °F 33.0 °F 37.4 °F 93% 29.75 in 5.0 mi SSE 9.2 mph - 0.00 in   Overcast
7:54 AM 39.0 °F 32.3 °F 37.9 °F 96% 29.76 in 2.0 mi SSE 10.4 mph - 0.00 in   Overcast
8:44 AM 39.2 °F 34.2 °F 37.4 °F 93% 29.78 in 2.0 mi SSW 6.9 mph - N/A   Overcast
8:54 AM 39.0 °F 34.0 °F 37.9 °F 96% 29.80 in 2.0 mi South 6.9 mph - N/A   Overcast
9:12 AM 37.4 °F 32.1 °F 37.4 °F 100% 29.79 in 2.0 mi South 6.9 mph - N/A   Overcast
9:54 AM 39.9 °F 37.8 °F 37.9 °F 93% 29.79 in 3.0 mi SE 3.5 mph - N/A   Overcast
10:14 AM 39.2 °F 34.2 °F 39.2 °F 100% 29.78 in 3.0 mi SE 6.9 mph - N/A   Overcast
10:54 AM 39.0 °F 35.7 °F 37.9 °F 96% 29.81 in 3.0 mi SE 4.6 mph - N/A   Overcast
11:54 AM 42.1 °F 39.2 °F 39.9 °F 92% 29.75 in 3.0 mi East 4.6 mph - 0.00 in   Overcast
12:54 PM 42.1 °F 40.2 °F 39.9 °F 92% 29.78 in 4.0 mi ESE 3.5 mph - 0.01 in Rain Rain
1:19 PM 42.8 °F 39.3 °F 41.0 °F 93% 29.76 in 2.5 mi ESE 5.8 mph - 0.06 in Rain Rain
1:48 PM 39.2 °F 34.2 °F 39.2 °F 100% 29.75 in 1.2 mi NE 6.9 mph - 0.10 in Rain Rain
1:54 PM 39.9 °F 35.8 °F 39.0 °F 97% 29.76 in 1.0 mi East 5.8 mph - 0.13 in Rain Heavy Rain
1:59 PM 41.0 °F 37.1 °F 39.2 °F 93% 29.74 in 1.2 mi East 5.8 mph - 0.02 in Rain Rain
2:17 PM 39.2 °F 34.2 °F 39.2 °F 100% 29.73 in 1.0 mi ENE 6.9 mph - 0.08 in Rain Rain
2:36 PM 41.0 °F 39.0 °F 39.2 °F 93% 29.72 in 0.8 mi ENE 3.5 mph - 0.10 in Rain Rain
2:52 PM 39.2 °F 35.0 °F 39.2 °F 100% 29.69 in 1.0 mi ENE 5.8 mph - 0.13 in Rain Rain
2:54 PM 39.9 °F 35.8 °F 39.9 °F 100% 29.71 in 1.0 mi ENE 5.8 mph - 0.13 in Rain Rain
3:54 PM 39.9 °F 36.7 °F 39.9 °F 100% 29.71 in 0.5 mi ESE 4.6 mph - 0.10 in Fog , Rain Heavy Rain
4:54 PM 41.0 °F 38.0 °F 41.0 °F 100% 29.68 in 1.0 mi East 4.6 mph - 0.18 in Rain Rain
5:13 PM 42.8 °F 38.0 °F 42.8 °F 100% 29.63 in 1.0 mi ESE 8.1 mph - 0.02 in Rain Light Rain
5:39 PM 44.6 °F 39.2 °F 42.8 °F 93% 29.62 in 0.2 mi East 10.4 mph - 0.02 in Fog Fog
5:54 PM 41.0 °F 33.9 °F 39.9 °F 96% 29.60 in 0.2 mi ENE 12.7 mph - 0.02 in Fog Fog
6:01 PM 41.0 °F 35.2 °F 41.0 °F 100% 29.59 in 0.2 mi East 9.2 mph - N/A Fog Fog
6:11 PM 42.8 °F 38.0 °F 42.8 °F 100% 29.62 in 0.2 mi East 8.1 mph - N/A Fog Fog
6:45 PM 42.8 °F 41.1 °F 42.8 °F 100% 29.60 in 0.5 mi East 3.5 mph - N/A Fog Fog
6:54 PM 44.1 °F 39.5 °F 44.1 °F 100% 29.61 in 1.2 mi ESE 8.1 mph - N/A   Overcast
7:16 PM 44.6 °F 39.7 °F 42.8 °F 93% 29.60 in 1.2 mi ESE 9.2 mph - N/A   Overcast
7:24 PM 42.8 °F 36.6 °F 42.8 °F 100% 29.60 in 2.0 mi ESE 11.5 mph - 0.00 in   Light Drizzle
7:43 PM 42.8 °F 38.0 °F 42.8 °F 100% 29.61 in 1.5 mi ESE 8.1 mph - 0.00 in   Light Drizzle
7:50 PM 42.8 °F 37.5 °F 42.8 °F 100% 29.61 in 1.0 mi ESE 9.2 mph - 0.00 in   Overcast
7:54 PM 43.0 °F 37.2 °F 43.0 °F 100% 29.63 in 0.8 mi East 10.4 mph - 0.00 in Rain Light Rain
8:29 PM 41.0 °F 39.0 °F 41.0 °F 100% 29.62 in 0.8 mi South 3.5 mph - 0.02 in   Overcast
8:38 PM 39.2 °F 35.9 °F 39.2 °F 100% 29.62 in 0.2 mi South 4.6 mph - 0.02 in Fog Light Drizzle
9:40 PM 37.4 °F 32.1 °F 37.4 °F 100% 29.62 in 0.2 mi South 6.9 mph - 0.00 in Fog Fog
9:54 PM 37.9 °F 32.7 °F 37.9 °F 100% 29.64 in 0.2 mi South 6.9 mph - 0.00 in Fog Fog
10:12 PM 37.4 °F 32.1 °F 37.4 °F 100% 29.63 in 0.2 mi South 6.9 mph - N/A Fog Fog
10:54 PM 37.0 °F 31.0 °F 37.0 °F 100% 29.65 in 0.2 mi South 8.1 mph - N/A Fog Fog
11:35 PM 37.4 °F 32.1 °F 37.4 °F 100% 29.62 in 0.2 mi South 6.9 mph - N/A Fog Fog
11:51 PM 37.4 °F 32.1 °F 37.4 °F 100% 29.62 in 0.2 mi South 6.9 mph - N/A Fog Fog
11:54 PM 37.4 °F 31.4 °F 37.4 °F 100% 29.62 in 0.2 mi South 8.1 mph - N/A Fog Fog
12:54 AM 39.0 °F 33.4 °F 39.0 °F 100% 29.64 in 0.2 mi SSW 8.1 mph - N/A Fog Fog